Weather in Taskayevo

Russia / Novosibirsk Oblast     55°05′53″N   78°36′39″E
temp.,
°C
wind,
m/s
gust,
m/s
humid.,
%
clouds,
%
prec.,
mm/h
press.,
hPa
HPBL,
m
12 may, wed
wed1201:00+9nne45595 0.0 102251
04:00+8n33652 0.0 102130
07:00+7nnw33671 0.0 102244
10:00+12nnw454921 0.0 1022399
13:00+14nnw343498 0.0 1020998
16:00+15wnw4534100 0.0 10191254
19:00+15w2439100 0.0 10181218
22:00+14wsw4749100 0.0 1017160
13 may, thu
thu1301:00+10w478799 0.9 1017152
04:00+9n61186100 0.7 1017316
07:00+8nnw61080100 0.8 1018300
10:00+9n68645 0.0 1018588
13:00+12nnw683645 0.0 1017899
16:00+14nnw5736100 0.0 10161174
19:00+14nnw673598 0.0 10161334
22:00+11n48475 0.0 1017113
14 may, fri
fri1401:00+10n510625 0.0 1018394
04:00+8nnw510735 0.0 1020247
07:00+7n5108099 0.0 1022287
10:00+10n577030 0.0 1023609
13:00+12nnw56490 0.0 1024741
16:00+14nnw56342 0.0 1024932
19:00+15nw563199 0.0 1024916
22:00+11w33462 0.0 102423
15 may, sat
sat1501:00+9wsw44503 0.0 102445
04:00+9wsw4654100 0.0 102367
07:00+9wsw48566 0.0 1023119
10:00+13wsw7104699 0.0 1022244
13:00+16wsw794559 0.0 1020392
16:00+17w6852100 0.0 1019453
19:00+20wsw57435 0.2 1017953
22:00+12nw3493100 0.9 1018103
16 may, sun
sun1601:00+11w349090 1.1 101686
04:00+10wnw5993100 0.0 1016138
07:00+11wnw3590100 0.0 101595
10:00+15wnw3471100 0.0 1015250
13:00+15ssw237424 0.4 101455
16:00+19w785198 0.1 1013687
19:00+19wnw575577 1.0 1012698
22:00+15wnw3373100 1.5 101416